| time (UTC) | temp C | wind direction | speed KPH | gust KPH | rain 1hr cm | rain 24hr cm | rain mn cm | humidity % | barometer mb |
| 20260505074516 | 16 | 225 | 1.6 | 9.7 | 0.00 | 0.00 | 0.00 | 66 | 1013.6 |
| 20260505073036 | 16 | 225 | 1.6 | 9.7 | 0.00 | 0.00 | 0.00 | 65 | 1013.4 |
| 20260505071516 | 16 | 225 | 1.6 | 3.2 | 0.00 | 0.00 | 0.00 | 65 | 1013.3 |
| 20260505070016 | 16 | 248 | 1.6 | 4.8 | 0.00 | 0.00 | 0.00 | 65 | 1013.2 |
| 20260505064516 | 16 | 248 | 1.6 | 6.4 | 0.00 | 0.00 | 0.00 | 64 | 1013.2 |
| 20260505063015 | 16 | 0.0 | 3.2 | 0.00 | 0.00 | 0.00 | 64 | 1013.1 | |
| 20260505061515 | 16 | 225 | 1.6 | 3.2 | 0.00 | 0.00 | 0.00 | 63 | 1013.1 |
| 20260505060015 | 16 | 0.0 | 3.2 | 0.00 | 0.00 | 0.00 | 63 | 1013.2 | |
| 20260505054516 | 16 | 68 | 1.6 | 4.8 | 0.00 | 0.00 | 0.00 | 62 | 1013.2 |
| 20260505053015 | 15 | 0.0 | 6.4 | 0.00 | 0.00 | 0.00 | 63 | 1013.2 | |
| 20260505051515 | 15 | 0.0 | 6.4 | 0.00 | 0.00 | 0.00 | 64 | 1013.1 | |
| 20260505041516 | 15 | 0.0 | 0.0 | 0.00 | 0.00 | 0.00 | 64 | 1012.7 | |
| 20260505040035 | 15 | 0.0 | 0.0 | 0.00 | 0.00 | 0.00 | 64 | 1012.6 | |
| 20260505034516 | 15 | 0.0 | 0.0 | 0.00 | 0.00 | 0.00 | 62 | 1012.6 | |
| 20260505033016 | 16 | 0.0 | 0.0 | 0.00 | 0.00 | 0.00 | 62 | 1012.7 | |
| 20260505031516 | 16 | 0.0 | 0.0 | 0.00 | 0.00 | 0.00 | 61 | 1012.7 | |
| 20260505030016 | 16 | 0.0 | 0.0 | 0.00 | 0.00 | 0.00 | 60 | 1012.8 | |
| 20260505024516 | 17 | 0.0 | 0.0 | 0.00 | 0.00 | 0.00 | 59 | 1012.8 | |
| 20260505023016 | 17 | 0.0 | 0.0 | 0.00 | 0.00 | 0.00 | 57 | 1012.7 | |
| 20260505021536 | 17 | 0.0 | 0.0 | 0.00 | 0.00 | 0.00 | 57 | 1012.6 | |
| 20260505020016 | 18 | 0.0 | 0.0 | 0.00 | 0.00 | 0.00 | 56 | 1012.6 | |
| 20260505014516 | 18 | 0.0 | 0.0 | 0.00 | 0.00 | 0.00 | 54 | 1012.5 | |
| 20260505013016 | 19 | 0.0 | 0.0 | 0.00 | 0.00 | 0.00 | 50 | 1012.4 | |
| 20260505011516 | 19 | 0.0 | 0.0 | 0.00 | 0.00 | 0.00 | 49 | 1012.1 | |
| 20260505010016 | 20 | 0.0 | 0.0 | 0.00 | 0.00 | 0.00 | 48 | 1012.0 | |
| 20260505004516 | 20 | 0.0 | 0.0 | 0.00 | 0.00 | 0.00 | 47 | 1011.7 | |
| 20260505003016 | 20 | 90 | 1.6 | 6.4 | 0.00 | 0.00 | 0.00 | 48 | 1011.7 |
| 20260505001515 | 21 | 0.0 | 1.6 | 0.00 | 0.00 | 0.00 | 44 | 1011.7 | |
| 20260505000016 | 21 | 0.0 | 1.6 | 0.00 | 0.00 | 0.00 | 42 | 1012.0 | |
| 20260504234515 | 22 | 0.0 | 1.6 | 0.00 | 0.00 | 0.00 | 40 | 1011.9 | |
| 20260504233015 | 22 | 0.0 | 1.6 | 0.00 | 0.00 | 0.00 | 39 | 1011.9 | |
| 20260504231515 | 23 | 0.0 | 1.6 | 0.00 | 0.00 | 0.00 | 37 | 1011.6 | |
| 20260504230015 | 24 | 113 | 1.6 | 6.4 | 0.00 | 0.00 | 0.00 | 36 | 1011.5 |
| 20260504224556 | 25 | 113 | 1.6 | 4.8 | 0.00 | 0.00 | 0.00 | 35 | 1011.8 |
| 20260504223015 | 25 | 225 | 1.6 | 4.8 | 0.00 | 0.00 | 0.00 | 34 | 1011.8 |
| 20260504221515 | 24 | 315 | 3.2 | 11.3 | 0.00 | 0.00 | 0.00 | 35 | 1011.6 |
| 20260504220016 | 24 | 113 | 1.6 | 14.5 | 0.00 | 0.00 | 0.00 | 38 | 1011.6 |
| 20260504214515 | 24 | 315 | 1.6 | 11.3 | 0.00 | 0.00 | 0.00 | 36 | 1011.5 |
| 20260504213015 | 24 | 248 | 1.6 | 11.3 | 0.00 | 0.00 | 0.00 | 34 | 1011.6 |
| 20260504211515 | 24 | 203 | 3.2 | 12.9 | 0.00 | 0.00 | 0.00 | 34 | 1011.7 |
| 20260504210016 | 24 | 270 | 1.6 | 4.8 | 0.00 | 0.00 | 0.00 | 38 | 1011.7 |
| 20260504204515 | 24 | 315 | 1.6 | 6.4 | 0.00 | 0.00 | 0.00 | 34 | 1011.7 |
| 20260504203015 | 24 | 225 | 3.2 | 8.0 | 0.00 | 0.00 | 0.00 | 38 | 1011.9 |
| 20260504201517 | 24 | 203 | 3.2 | 11.3 | 0.00 | 0.00 | 0.00 | 35 | 1012.1 |
| 20260504200015 | 24 | 225 | 1.6 | 8.0 | 0.00 | 0.00 | 0.00 | 37 | 1012.3 |
| 20260504194517 | 24 | 158 | 3.2 | 8.0 | 0.00 | 0.00 | 0.00 | 34 | 1012.5 |
| 20260504193017 | 24 | 270 | 3.2 | 12.9 | 0.00 | 0.00 | 0.00 | 34 | 1012.6 |
| 20260504191517 | 23 | 0 | 3.2 | 11.3 | 0.00 | 0.00 | 0.00 | 33 | 1012.8 |
| 20260504190017 | 23 | 293 | 3.2 | 8.0 | 0.00 | 0.00 | 0.00 | 35 | 1013.1 |
| 20260504184517 | 23 | 338 | 1.6 | 8.0 | 0.00 | 0.00 | 0.00 | 35 | 1013.3 |
| 20260504183017 | 23 | 315 | 1.6 | 12.9 | 0.00 | 0.00 | 0.00 | 38 | 1013.4 |
| 20260504181517 | 22 | 315 | 1.6 | 6.4 | 0.00 | 0.00 | 0.00 | 37 | 1013.5 |
| 20260504180017 | 22 | 315 | 1.6 | 8.0 | 0.00 | 0.00 | 0.00 | 36 | 1013.8 |
| 20260504174517 | 23 | 135 | 3.2 | 6.4 | 0.00 | 0.00 | 0.00 | 34 | 1013.7 |
| 20260504173037 | 22 | 315 | 3.2 | 6.4 | 0.00 | 0.00 | 0.00 | 35 | 1013.9 |
| 20260504171517 | 22 | 315 | 3.2 | 12.9 | 0.00 | 0.00 | 0.00 | 35 | 1014.2 |
| 20260504081515 | 8 | 0.0 | 0.0 | 0.00 | 0.00 | 0.00 | 72 | 1016.7 |